C/2024 A2 ( ATLAS )

Japanese version
Home page
Updated on March 23, 2025

---------------------------------------------------------------------

* Profile

Discovery Date January 15, 2024
Magnitude 18.0 mag
Discoverer Asteroid Terrestrial-Impact Last Alert System (ATLAS) search program

* Pictures

* Orbital Elements

Epoch 2025 May 5.0 TT = JDT 2460800.5
T 2024 Apr. 28.83584 TT                                 Pike
q   1.8796096            (2000.0)            P               Q
n   0.00535892     Peri.  295.50453     -0.34151973     +0.39014766
a  32.3408470      Node    78.16606     +0.78293341     +0.62142134
e   0.9418813      Incl.  119.11547     -0.51998034     +0.67942646
P 184
From 497 observations 2024 Jan. 15-2025 Jan. 22, mean residual 0".3.

* Magnitudes Graph

        H = 13.0  G = 0.15

---------------------------------------------------------------------

The orbital elements are published on M.P.E.C. 2025-C143.
The magnitudes graphs are made with Comet for Windows.

---------------------------------------------------------------------

Copyright(C) Seiichi Yoshida (comet@aerith.net). All rights reserved.